Zurück zum Katalog

PHASMA-DIRAC

LostWissenschaftSSO
NORAD 66746·PAYLOAD·🇬🇷 Greece
Dieser Satellitenname wurde noch nicht durch offizielle Quellen bestätigt.

Gestartet Nov 28, 2025 von Vandenberg Space Force Base

Loading…

Nächste Überflüge (nächste 24 Stunden)

TLE

VeraltetSource: Space-Track

Epoche: Apr 7, 2026, 04:45 UTC

1 66746U 25276CJ  26097.19793056  .00020467  00000-0  89148-3 0  9997
2 66746  97.3654 171.5433 0012421 195.3082 164.7781 15.22167227 19668

Verfolge PHASMA-DIRAC in Echtzeit mit AllMySat

Download on the App Store